GW1690 Weather Reports


Display with metric or nautical units.
time (UTC)temp
F
wind
direction
speed
MPH
gust
MPH
rain 1hr
in
rain 24hr
in
rain mn
in
humidity
%
barometer
mb
20260508082539 49 216 1.0 2.0 0.00 0.00 0.00 77 1030.8
20260508082025 49 223 1.0 3.0 0.00 0.00 0.00 77 1030.6
20260508081523 49 247 2.0 3.0 0.00 0.00 0.00 76 1030.3
20260508081022 49 245 2.0 3.0 0.00 0.00 0.00 76 1030.3
20260508080522 50 291 2.0 3.0 0.00 0.00 0.00 75 1030.2
20260508080022 50 244 2.0 3.0 0.00 0.00 0.00 74 1030.2
20260508075523 50 240 3.0 3.0 0.00 0.00 0.00 74 1030.4
20260508075025 50 230 2.0 3.0 0.00 0.00 0.00 74 1030.5
20260508074523 50 230 2.0 3.0 0.00 0.00 0.00 74 1030.5
20260508074025 50 227 2.0 3.0 0.00 0.00 0.00 74 1030.4
20260508073524 50 239 2.0 3.0 0.00 0.00 0.00 75 1030.6
20260508073024 50 253 2.0 3.0 0.00 0.00 0.00 75 1030.7
20260508072525 50 237 1.0 3.0 0.00 0.00 0.00 75 1030.9
20260508072105 50 229 3.0 3.0 0.00 0.00 0.00 74 1031.5
20260508071544 50 354 3.0 3.0 0.00 0.00 0.00 73 1032.2
20260508071026 50 315 3.0 3.0 0.00 0.00 0.00 73 1032.3
20260508070524 50 234 3.0 3.0 0.00 0.00 0.00 72 1033.1
20260508070024 51 239 3.0 3.0 0.00 0.00 0.00 72 1033.2
20260508065525 51 235 3.0 3.0 0.00 0.00 0.00 72 1033.5
20260508065025 51 248 3.0 3.0 0.00 0.00 0.00 71 1034.2
20260508064541 51 316 3.0 3.0 0.00 0.00 0.00 71 1034.3
20260508064044 51 19 3.0 4.0 0.00 0.00 0.00 72 1033.6
20260508063521 51 262 3.0 4.0 0.00 0.00 0.00 72 1033.3
20260508063022 51 242 3.0 3.0 0.00 0.00 0.00 72 1033.9
20260508062523 51 267 3.0 3.0 0.00 0.00 0.00 72 1033.9
20260508062021 51 247 3.0 3.0 0.00 0.00 0.00 70 1036.3
20260508061542 51 256 3.0 3.0 0.00 0.00 0.00 69 1037.6
20260508061043 51 241 3.0 3.0 0.00 0.00 0.00 69 1038.1
20260508060523 51 270 3.0 3.0 0.00 0.00 0.00 70 1036.9
20260508060022 52 359 3.0 4.0 0.00 0.00 0.00 69 1037.7
20260508055523 52 240 3.0 3.0 0.00 0.00 0.00 69 1038.7
20260508055022 52 235 3.0 3.0 0.00 0.00 0.00 67 1039.7
20260508054521 52 236 3.0 3.0 0.00 0.00 0.00 67 1040.0
20260508054023 53 232 3.0 3.0 0.00 0.00 0.00 67 1040.1
20260508053542 53 260 3.0 3.0 0.00 0.00 0.00 66 1040.1
20260508053025 53 238 3.0 4.0 0.00 0.00 0.00 66 1040.1
20260508052523 53 230 2.0 3.0 0.00 0.00 0.00 65 1040.0
20260508052023 54 229 2.0 3.0 0.00 0.00 0.00 64 1038.4
20260508051523 54 247 1.0 3.0 0.00 0.00 0.00 64 1038.3
20260508051024 54 218 1.0 3.0 0.00 0.00 0.00 63 1037.2
20260508050523 55 218 1.0 3.0 0.00 0.00 0.00 61 1034.2
20260508050041 55 42 2.0 5.0 0.00 0.00 0.00 61 1033.4
20260508045521 55 33 2.0 4.0 0.00 0.00 0.00 60 1031.0
20260508045020 55 227 1.0 4.0 0.00 0.00 0.00 59 1028.5
20260508044522 55 211 1.0 3.0 0.00 0.00 0.00 58 1027.7
20260508044024 55 184 2.0 5.0 0.00 0.00 0.00 59 1029.7
20260508043526 54 159 2.0 5.0 0.00 0.00 0.00 60 1031.8
20260508043045 54 184 1.0 4.0 0.00 0.00 0.00 62 1033.6
20260508042524 55 200 1.0 4.0 0.00 0.00 0.00 62 1036.0
20260508042021 55 211 1.0 4.0 0.00 0.00 0.00 62 1036.0
20260508041522 55 34 2.0 4.0 0.00 0.00 0.00 61 1034.5
20260508041021 55 31 2.0 4.0 0.00 0.00 0.00 60 1031.9
20260508040521 55 304 1.0 4.0 0.00 0.00 0.00 59 1029.9
20260508040022 55 205 2.0 5.0 0.00 0.00 0.00 58 1027.4
20260508035521 55 220 1.0 5.0 0.00 0.00 0.00 59 1030.3
20260508035022 55 214 1.0 4.0 0.00 0.00 0.00 62 1035.4
20260508034521 54 93 1.0 4.0 0.00 0.00 0.00 62 1036.1
20260508034042 54 201 1.0 4.0 0.00 0.00 0.00 63 1036.3
20260508033523 54 151 1.0 4.0 0.00 0.00 0.00 65 1039.2
20260508033024 54 215 1.0 4.0 0.00 0.00 0.00 66 1040.0
20260508032523 54 214 1.0 5.0 0.00 0.00 0.00 65 1039.5
20260508032103 54 214 1.0 4.0 0.00 0.00 0.00 65 1039.8
20260508031522 54 215 1.0 3.0 0.00 0.00 0.00 65 1039.9
20260508031022 55 215 1.0 1.0 0.00 0.00 0.00 65 1040.1
20260508030522 55 216 1.0 4.0 0.00 0.00 0.00 63 1038.2
20260508030025 55 186 1.0 4.0 0.00 0.00 0.00 63 1038.6
20260508025523 55 240 1.0 4.0 0.00 0.00 0.00 63 1038.0
20260508025023 56 29 1.0 4.0 0.00 0.00 0.00 62 1036.7
20260508024523 56 48 2.0 4.0 0.00 0.00 0.00 63 1038.4
20260508024024 56 29 2.0 5.0 0.00 0.00 0.00 62 1035.9
20260508023523 56 213 1.0 5.0 0.00 0.00 0.00 61 1034.8
20260508023024 56 218 1.0 3.0 0.00 0.00 0.00 60 1033.0
20260508022605 57 209 1.0 5.0 0.00 0.00 0.00 59 1030.4
20260508022024 57 32 2.0 5.0 0.00 0.00 0.00 59 1029.8
20260508021520 57 26 2.0 5.0 0.00 0.00 0.00 59 1031.2
20260508021021 57 234 1.0 5.0 0.00 0.00 0.00 58 1028.3
20260508020541 58 222 1.0 5.0 0.00 0.00 0.00 56 1024.8
20260508020023 58 224 1.0 5.0 0.00 0.00 0.00 55 1024.2
20260508015523 58 224 0.0 4.0 0.00 0.00 0.00 56 1024.2
20260508015023 59 224 0.0 0.0 0.00 0.00 0.00 55 1023.3
20260508014523 59 224 0.0 1.0 0.00 0.00 0.00 53 1020.6
20260508014025 59 224 0.0 1.0 0.00 0.00 0.00 52 1019.0
20260508013602 60 224 0.0 1.0 0.00 0.00 0.00 52 1019.3
20260508013043 60 224 0.0 1.0 0.00 0.00 0.00 51 1018.8
20260508012524 60 223 0.0 1.0 0.00 0.00 0.00 50 1017.6
20260508012041 61 224 0.0 1.0 0.00 0.00 0.00 50 1017.2
20260508011522 61 224 0.0 1.0 0.00 0.00 0.00 48 1015.7
20260508011021 62 225 0.0 1.0 0.00 0.00 0.00 47 1015.0
20260508010521 62 224 0.0 1.0 0.00 0.00 0.00 46 1014.1
20260508010021 63 225 0.0 1.0 0.00 0.00 0.00 45 1013.5
20260508005521 63 224 0.0 1.0 0.00 0.00 0.00 44 1013.1
20260508005022 63 222 0.0 1.0 0.00 0.00 0.00 44 1013.2
20260508004602 63 221 1.0 1.0 0.00 0.00 0.00 43 1012.7
20260508004022 64 212 1.0 3.0 0.00 0.00 0.00 42 1012.6
20260508003522 64 223 1.0 2.0 0.00 0.00 0.00 42 1012.3
20260508003022 64 220 1.0 3.0 0.00 0.00 0.00 42 1012.5
20260508002522 64 208 1.0 5.0 0.00 0.00 0.00 41 1012.0
20260508002042 64 212 1.0 6.0 0.00 0.00 0.00 41 1012.3
20260508001543 64 217 1.0 6.0 0.00 0.00 0.00 42 1012.5
20260508001024 65 214 2.0 6.0 0.00 0.00 0.00 40 1012.1
20260508000523 65 214 2.0 4.0 0.00 0.00 0.00 40 1011.8
20260508000027 65 212 2.0 7.0 0.00 0.00 0.00 40 1012.0
20260507235523 65 181 2.0 6.0 0.00 0.00 0.00 41 1012.2
20260507235022 65 212 2.0 6.0 0.00 0.00 0.00 41 1012.1
20260507234523 65 212 2.0 6.0 0.00 0.00 0.00 40 1012.0
20260507234023 66 227 2.0 4.0 0.00 0.00 0.00 40 1012.0
20260507233523 66 207 2.0 5.0 0.00 0.00 0.00 40 1012.1
20260507233024 66 220 2.0 7.0 0.00 0.00 0.00 40 1012.0
20260507232542 66 213 2.0 8.0 0.00 0.00 0.00 40 1012.0
20260507232020 66 215 2.0 4.0 0.00 0.00 0.00 39 1011.9
20260507231520 66 211 2.0 5.0 0.00 0.00 0.00 39 1012.2
20260507231023 66 194 2.0 6.0 0.00 0.00 0.00 39 1011.9
20260507230523 66 205 2.0 4.0 0.00 0.00 0.00 40 1012.3
20260507230025 66 195 3.0 7.0 0.00 0.00 0.00 38 1011.9
20260507225526 66 219 2.0 4.0 0.00 0.00 0.00 39 1012.1
20260507225024 67 200 2.0 5.0 0.00 0.00 0.00 39 1012.1
20260507224523 67 204 2.0 5.0 0.00 0.00 0.00 38 1011.9
20260507224021 67 213 2.0 5.0 0.00 0.00 0.00 39 1012.3
20260507223521 67 185 3.0 6.0 0.00 0.00 0.00 39 1012.2
20260507223023 67 188 3.0 7.0 0.00 0.00 0.00 39 1012.1
20260507222521 67 214 2.0 6.0 0.00 0.00 0.00 38 1012.1
20260507222021 67 226 2.0 4.0 0.00 0.00 0.00 39 1012.1
20260507221521 67 209 3.0 9.0 0.00 0.00 0.00 39 1012.3
20260507221025 68 220 2.0 6.0 0.00 0.00 0.00 39 1012.2
20260507220521 68 201 2.0 5.0 0.00 0.00 0.00 38 1012.2
20260507220041 68 198 2.0 5.0 0.00 0.00 0.00 37 1012.0
20260507215521 69 204 2.0 4.0 0.00 0.00 0.00 37 1011.9
20260507215022 69 196 2.0 5.0 0.00 0.00 0.00 37 1012.1
20260507214522 68 320 2.0 6.0 0.00 0.00 0.00 37 1012.0
20260507214025 68 227 2.0 6.0 0.00 0.00 0.00 37 1012.1
20260507213522 68 220 2.0 5.0 0.00 0.00 0.00 39 1012.4
20260507213043 67 231 2.0 6.0 0.00 0.00 0.00 39 1012.4
20260507212543 67 214 3.0 8.0 0.00 0.00 0.00 39 1012.2
20260507212022 67 217 2.0 5.0 0.00 0.00 0.00 37 1012.1
20260507211524 68 211 2.0 4.0 0.00 0.00 0.00 38 1012.3
20260507211023 68 188 2.0 6.0 0.00 0.00 0.00 39 1012.5
20260507210525 67 214 2.0 4.0 0.00 0.00 0.00 38 1012.4
20260507210022 67 207 3.0 6.0 0.00 0.00 0.00 38 1012.6
20260507205523 67 199 2.0 6.0 0.00 0.00 0.00 38 1012.3
20260507205025 67 212 3.0 8.0 0.00 0.00 0.00 39 1012.9
20260507204522 67 181 3.0 7.0 0.00 0.00 0.00 38 1012.8
20260507204103 66 208 3.0 6.0 0.00 0.00 0.00 38 1012.8
20260507203523 66 187 3.0 6.0 0.00 0.00 0.00 38 1013.0
20260507203102 66 262 3.0 8.0 0.00 0.00 0.00 40 1013.1
20260507202520 67 206 3.0 11.0 0.00 0.00 0.00 38 1012.8
20260507202024 67 198 3.0 7.0 0.00 0.00 0.00 40 1013.3
20260507201522 67 244 3.0 8.0 0.00 0.00 0.00 40 1013.2
20260507201026 67 218 3.0 6.0 0.00 0.00 0.00 40 1013.4
20260507200525 66 206 2.0 7.0 0.00 0.00 0.00 40 1013.3
20260507200024 66 214 3.0 12.0 0.00 0.00 0.00 38 1013.1
20260507195522 67 208 2.0 6.0 0.00 0.00 0.00 39 1013.3
20260507195041 67 218 2.0 4.0 0.00 0.00 0.00 38 1013.0
20260507194601 67 229 3.0 7.0 0.00 0.00 0.00 38 1013.2
20260507194021 67 218 2.0 6.0 0.00 0.00 0.00 38 1013.1
20260507193601 67 203 2.0 5.0 0.00 0.00 0.00 40 1013.8
20260507193021 67 202 2.0 5.0 0.00 0.00 0.00 39 1013.3
20260507192541 67 255 2.0 6.0 0.00 0.00 0.00 39 1013.4
20260507192025 67 300 3.0 7.0 0.00 0.00 0.00 38 1013.5
20260507191524 67 209 3.0 9.0 0.00 0.00 0.00 39 1013.4
20260507191022 67 173 3.0 7.0 0.00 0.00 0.00 39 1013.3
20260507190522 66 209 2.0 6.0 0.00 0.00 0.00 39 1013.5
20260507190022 66 210 3.0 8.0 0.00 0.00 0.00 39 1013.5
20260507185522 66 215 3.0 8.0 0.00 0.00 0.00 39 1013.6
20260507185021 66 207 3.0 9.0 0.00 0.00 0.00 40 1013.9
20260507184545 66 196 2.0 5.0 0.00 0.00 0.00 39 1013.5
20260507184042 67 220 3.0 7.0 0.00 0.00 0.00 39 1013.5
20260507183540 68 227 3.0 11.0 0.00 0.00 0.00 37 1013.2
20260507183100 67 248 2.0 7.0 0.00 0.00 0.00 39 1013.7
20260507182520 68 129 2.0 7.0 0.00 0.00 0.00 37 1013.4
20260507182022 68 214 2.0 8.0 0.00 0.00 0.00 37 1013.4
20260507181525 69 228 3.0 11.0 0.00 0.00 0.00 36 1013.5
20260507181023 68 286 3.0 10.0 0.00 0.00 0.00 36 1013.3
20260507180526 68 272 2.0 11.0 0.00 0.00 0.00 36 1013.6
20260507180023 67 312 2.0 8.0 0.00 0.00 0.00 38 1013.7
20260507175522 66 225 3.0 7.0 0.00 0.00 0.00 39 1013.9
20260507175021 67 217 3.0 11.0 0.00 0.00 0.00 40 1014.1
20260507174522 67 202 3.0 8.0 0.00 0.00 0.00 40 1014.1
20260507174022 67 210 2.0 6.0 0.00 0.00 0.00 39 1014.1
20260507173520 68 217 3.0 12.0 0.00 0.00 0.00 37 1013.9
20260507173020 67 331 2.0 8.0 0.00 0.00 0.00 36 1013.6
20260507172520 66 314 3.0 9.0 0.00 0.00 0.00 36 1013.7
20260507172023 65 229 3.0 8.0 0.00 0.00 0.00 38 1014.3
20260507171521 64 212 2.0 6.0 0.00 0.00 0.00 40 1014.3
20260507171021 65 179 3.0 7.0 0.00 0.00 0.00 38 1014.0
20260507170522 65 199 3.0 6.0 0.00 0.00 0.00 40 1014.3
20260507170020 66 194 3.0 6.0 0.00 0.00 0.00 42 1015.5
20260507165521 66 200 2.0 5.0 0.00 0.00 0.00 40 1014.6
20260507165022 66 266 1.0 4.0 0.00 0.00 0.00 39 1014.6
20260507164541 65 245 2.0 8.0 0.00 0.00 0.00 40 1014.7
20260507164022 64 210 2.0 9.0 0.00 0.00 0.00 42 1015.2
20260507163524 65 204 3.0 10.0 0.00 0.00 0.00 40 1014.7
20260507163023 64 222 2.0 7.0 0.00 0.00 0.00 39 1014.6
20260507162525 64 226 3.0 9.0 0.00 0.00 0.00 39 1014.6
20260507162104 64 201 2.0 5.0 0.00 0.00 0.00 40 1014.7
20260507161522 64 199 2.0 5.0 0.00 0.00 0.00 38 1014.3
20260507161024 62 220 3.0 9.0 0.00 0.00 0.00 42 1015.4
20260507160522 62 216 3.0 9.0 0.00 0.00 0.00 41 1014.6
20260507160023 61 172 3.0 9.0 0.00 0.00 0.00 40 1014.7
20260507155521 61 218 3.0 9.0 0.00 0.00 0.00 42 1015.1
20260507155043 61 210 3.0 8.0 0.00 0.00 0.00 43 1015.4
20260507154523 61 211 3.0 10.0 0.00 0.00 0.00 43 1015.2
20260507154023 61 195 3.0 6.0 0.00 0.00 0.00 43 1015.3
20260507153542 61 213 3.0 8.0 0.00 0.00 0.00 44 1015.5
20260507153023 61 193 2.0 7.0 0.00 0.00 0.00 45 1015.9
20260507152522 61 220 3.0 8.0 0.00 0.00 0.00 45 1015.7
20260507152022 61 205 2.0 7.0 0.00 0.00 0.00 47 1016.4
20260507151525 60 212 2.0 7.0 0.00 0.00 0.00 49 1017.7
20260507151023 60 191 2.0 5.0 0.00 0.00 0.00 48 1018.0
20260507150544 59 210 2.0 7.0 0.00 0.00 0.00 53 1019.9
20260507150023 59 198 3.0 7.0 0.00 0.00 0.00 52 1020.1
20260507145526 59 213 2.0 7.0 0.00 0.00 0.00 54 1022.7
20260507145023 58 210 3.0 7.0 0.00 0.00 0.00 53 1020.5
20260507144540 58 190 3.0 5.0 0.00 0.00 0.00 52 1018.9
20260507144021 58 165 2.0 5.0 0.00 0.00 0.00 53 1022.0
20260507143522 57 203 3.0 9.0 0.00 0.00 0.00 52 1020.0
20260507143023 56 212 3.0 7.0 0.00 0.00 0.00 53 1021.7
20260507142523 56 167 2.0 4.0 0.00 0.00 0.00 52 1020.1
20260507142043 56 190 2.0 6.0 0.00 0.00 0.00 55 1022.5
20260507141525 56 162 2.0 5.0 0.00 0.00 0.00 54 1021.2
20260507141021 56 163 2.0 5.0 0.00 0.00 0.00 53 1021.0
20260507140523 55 196 2.0 5.0 0.00 0.00 0.00 56 1023.3
20260507140021 55 193 2.0 5.0 0.00 0.00 0.00 56 1025.1
20260507135541 54 198 2.0 4.0 0.00 0.00 0.00 58 1027.1
20260507135024 53 174 2.0 4.0 0.00 0.00 0.00 59 1029.0
20260507134526 52 95 2.0 4.0 0.00 0.00 0.00 58 1029.3
20260507134026 52 138 2.0 3.0 0.00 0.00 0.00 60 1031.6
20260507133526 52 204 2.0 3.0 0.00 0.00 0.00 61 1033.4
20260507133025 51 182 1.0 3.0 0.00 0.00 0.00 62 1034.7
20260507132525 51 176 2.0 3.0 0.00 0.00 0.00 62 1035.0
20260507132025 50 218 1.0 3.0 0.00 0.00 0.00 62 1035.1
20260507131527 50 171 2.0 4.0 0.00 0.00 0.00 65 1038.7
20260507131027 49 214 2.0 3.0 0.00 0.00 0.00 69 1040.1
20260507130526 48 217 2.0 3.0 0.00 0.00 0.00 73 1035.8
20260507130027 48 190 2.0 3.0 0.00 0.00 0.00 76 1034.0
20260507125526 47 175 1.0 3.0 0.00 0.00 0.00 77 1033.8
20260507125026 47 190 1.0 2.0 0.00 0.00 0.00 78 1033.8
20260507124528 46 170 1.0 3.0 0.00 0.00 0.00 78 1034.4
20260507124028 45 174 1.0 2.0 0.00 0.00 0.00 81 1038.4
20260507123526 45 149 2.0 3.0 0.00 0.00 0.00 84 1042.2
20260507123108 44 200 1.0 2.0 0.00 0.00 0.00 87 1043.9
20260507122526 44 200 1.0 2.0 0.00 0.00 0.00 88 1043.9
20260507122027 43 237 1.0 2.0 0.00 0.00 0.00 89 1043.2
20260507121528 43 224 1.0 2.0 0.00 0.00 0.00 90 1042.2
20260507121027 43 224 1.0 2.0 0.00 0.00 0.00 91 1041.1
20260507120527 42 219 1.0 1.0 0.00 0.00 0.00 92 1040.2
20260507120026 42 221 1.0 2.0 0.00 0.00 0.00 92 1039.9
20260507115547 41 216 0.0 1.0 0.00 0.00 0.00 93 1039.8
20260507115027 41 223 1.0 2.0 0.00 0.00 0.00 93 1039.8
20260507114528 41 212 1.0 1.0 0.00 0.00 0.00 93 1040.0
20260507114029 41 218 1.0 1.0 0.00 0.00 0.00 93 1040.2
20260507113529 41 226 1.0 2.0 0.00 0.00 0.00 93 1040.5
20260507113029 41 227 1.0 2.0 0.00 0.00 0.00 93 1040.8
20260507112528 41 224 1.0 2.0 0.00 0.00 0.00 93 1041.2
20260507112031 41 230 1.0 2.0 0.00 0.00 0.00 93 1041.6
20260507111527 41 234 1.0 2.0 0.00 0.00 0.00 93 1042.0
20260507111029 41 231 1.0 2.0 0.00 0.00 0.00 92 1042.3
20260507110527 41 226 1.0 2.0 0.00 0.00 0.00 92 1042.6
20260507110028 41 249 2.0 2.0 0.00 0.00 0.00 92 1042.9
20260507105528 41 228 1.0 2.0 0.00 0.00 0.00 92 1043.2
20260507105048 41 251 2.0 2.0 0.00 0.00 0.00 92 1043.5
20260507104548 41 238 2.0 2.0 0.00 0.00 0.00 92 1043.8
20260507104028 41 236 2.0 2.0 0.00 0.00 0.00 91 1043.9
20260507103529 42 234 2.0 2.0 0.00 0.00 0.00 91 1044.0
20260507103029 42 243 2.0 2.0 0.00 0.00 0.00 91 1044.0
20260507102529 42 230 2.0 2.0 0.00 0.00 0.00 91 1044.0
20260507102028 42 232 2.0 2.0 0.00 0.00 0.00 91 1043.9
20260507101528 42 237 2.0 2.0 0.00 0.00 0.00 91 1043.8
20260507101030 42 307 2.0 2.0 0.00 0.00 0.00 91 1043.8
20260507100531 42 240 2.0 2.0 0.00 0.00 0.00 91 1043.8
20260507100029 42 237 2.0 2.0 0.00 0.00 0.00 91 1043.8
20260507095529 42 233 2.0 2.0 0.00 0.00 0.00 91 1043.7
20260507095028 42 262 2.0 2.0 0.00 0.00 0.00 91 1043.5
20260507094529 42 254 2.0 2.0 0.00 0.00 0.00 91 1043.4
20260507094050 42 237 2.0 2.0 0.00 0.00 0.00 90 1043.3
20260507093529 42 231 2.0 2.0 0.00 0.00 0.00 90 1043.2
20260507093030 42 240 2.0 2.0 0.00 0.00 0.00 90 1043.1
20260507092530 42 287 2.0 2.0 0.00 0.00 0.00 90 1043.1
20260507092029 42 227 1.0 2.0 0.00 0.00 0.00 90 1043.0
20260507091550 41 235 1.0 2.0 0.00 0.00 0.00 90 1043.0
20260507091030 41 234 1.0 2.0 0.00 0.00 0.00 90 1042.9
20260507090530 41 228 1.0 2.0 0.00 0.00 0.00 91 1042.9
20260507090051 41 232 2.0 2.0 0.00 0.00 0.00 90 1042.9
20260507085530 41 231 2.0 2.0 0.00 0.00 0.00 89 1042.7
20260507085030 41 244 2.0 2.0 0.00 0.00 0.00 89 1042.7
20260507084530 41 249 2.0 2.0 0.00 0.00 0.00 89 1042.3
20260507084029 41 242 2.0 2.0 0.00 0.00 0.00 88 1041.8
20260507083530 41 236 2.0 2.0 0.00 0.00 0.00 88 1041.7
20260507083111 41 245 2.0 2.0 0.00 0.00 0.00 88 1041.4